Home   Weather   Cape Canaveral   Past weeks

Flag for USA Past Weather in Cape Canaveral, Florida, USA — Yesterday and Last 2 Weeks

Now
71 °F

Overcast.


Feels Like: 75 °F
Forecast: 69 / 77 °F
Wind: 7 mph from East

Location: Cape Kennedy

Current Time: Dec 4, 2016 at 3:28:20 am

Latest Report: Dec 4, 2016 at 2:58 am


Visibility: 10 mi

Pressure: 30.09 "Hg

Humidity: 68%

Dew Point: 60 °F

Location of Cape CanaveralLocation

Past Weather in Cape Canaveral — Graph

°F

Cape Canaveral Temperature Yesterday

Maximum temperature yesterday: 76 °F (at 12:58 pm)
Minimum temperature yesterday: 64 °F (at 12:58 am)
Average temperature yesterday: 70 °F

High & Low Weather Summary for the Past Weeks

 TemperatureHumidityPressure
High86 °F (Dec 1, 1:58 pm)97% (Dec 1, 12:58 am)30.26 "Hg (Dec 1, 12:58 am)
Low47 °F (Nov 20, 8:58 pm)20% (Nov 21, 2:58 pm)29.92 "Hg (Nov 30, 3:58 pm)
Average69 °F72%30.10 "Hg
* Reported Nov 19 1:03 am — Dec 4 1:58 am, Cape Canaveral, Weather by CustomWeather, © 2016

Note: Actual official high and low records may vary slightly from our data, if they occured in-between our weather recording intervals... More about our weather records

Advertising

Cape Canaveral Weather History for the Previous 24 Hours

Scroll right to see more
 ConditionsComfort  
Time TempWeatherWind HumidityBarometerVisibility
1:58 am
Sun, Dec 4
71 °FOvercast.8 mph69%30.10 "Hg10 mi
12:58 am71 °FOvercast.8 mph70%30.11 "Hg10 mi
11:58 pm
Sat, Dec 3
71 °FOvercast.8 mph67%30.12 "Hg10 mi
10:58 pm69 °FPassing clouds.7 mph70%30.13 "Hg10 mi
9:58 pm69 °FPassing clouds.8 mph67%30.13 "Hg10 mi
8:58 pm69 °FPassing clouds.9 mph68%30.13 "Hg10 mi
7:58 pm69 °FClear.7 mph67%30.13 "Hg10 mi
6:58 pm69 °FClear.7 mph66%30.11 "Hg10 mi
5:58 pm69 °FClear.8 mph67%30.11 "Hg10 mi
4:58 pm72 °FPassing clouds.6 mph63%30.10 "Hg10 mi
3:58 pm74 °FSunny.8 mph59%30.10 "Hg10 mi
2:58 pm75 °FSunny.8 mph57%30.10 "Hg10 mi
1:58 pm75 °FSunny.9 mph55%30.10 "Hg10 mi
12:58 pm76 °FSunny.10 mph54%30.12 "Hg10 mi
11:58 am75 °FSunny.10 mph56%30.14 "Hg10 mi
10:58 am74 °FSunny.10 mph57%30.17 "Hg10 mi
9:58 am74 °FSunny.12 mph59%30.17 "Hg10 mi
8:58 am72 °FSunny.10 mph61%30.16 "Hg10 mi
7:58 am69 °FSunny.6 mph68%30.15 "Hg10 mi
6:58 am68 °FClear.7 mph70%30.13 "Hg10 mi
5:58 am68 °FClear.8 mph70%30.13 "Hg10 mi
4:58 am66 °FClear.7 mph75%30.12 "Hg10 mi
3:58 am66 °FClear.6 mph75%30.12 "Hg10 mi
Weather by CustomWeather, © 2016

See weather overviewHow to use our weather pages